#timestamp,LO_Frequency,Hit,StdDev 
1678586415.9,286047000.8,N
1678586435.7,286046999.2,N
1678586455.5,286046999.3,N
1678586475.4,286046998.7,N
1678586495.2,286046997.2,N
1678586515.0,286046997.1,N
1678586516.0,286046997.1,N
1678586535.8,286046997.2,N
1678586555.6,286046997.2,N
1678586575.5,286046997.4,N
1678586595.3,286046997.6,N
1678586615.1,286046997.1,N
1678586635.9,286046996.5,N
1678586655.7,286046999.2,N
1678586675.5,286046996.9,N
1678586695.4,286046999.6,N
1678586715.2,286046999.2,N
1678586735.1,286046997.1,N
1678586736.0,286046997.1,N
1678586755.8,286046996.8,N
1678586775.6,286046997.7,N
1678586795.5,286046998.0,N
1678586815.3,286046997.8,N
1678586835.1,286046998.0,N
1678586855.9,286046995.4,Y
1678586875.7,286046997.9,P
1678586895.6,286046995.0,P
1678586915.4,286046997.9,N
1678586935.2,286046997.4,N
1678586955.1,286046995.6,Y
1678586956.0,286046995.6,P
1678586975.8,286046998.1,N
1678586995.7,286046998.6,N
1678587015.5,286046999.3,N
1678587035.3,286046998.7,N
1678587055.2,286046997.2,N
1678587075.0,286046996.9,N
1678587075.9,286046996.9,N
1678587095.7,286046997.4,N
1678587115.6,286046994.9,Y
1678587135.4,286047000.7,P
1678587155.3,286047000.1,N
1678587175.1,286047000.2,N
1678587176.0,286047000.2,N
1678587195.8,286047002.8,N
1678587215.7,286047000.2,N
1678587235.5,286047000.3,N
1678587255.4,286047000.0,N
1678587275.2,286047000.0,N
1678587295.0,286047000.5,N
1678587295.9,286047000.5,N
1678587315.8,286047002.4,N
1678587335.6,286047002.4,N
1678587355.4,286046999.9,N
1678587375.3,286046999.7,N
1678587395.1,286047001.9,N
1678587415.9,286047001.8,N
1678587435.7,286047001.4,N
1678587455.5,286047004.3,Y
1678587475.4,286047002.0,P
1678587495.2,286047000.1,N
1678587515.0,286047000.9,N
1678587515.9,286047000.9,N
1678587535.8,286047000.1,N
1678587555.6,286047001.0,N
1678587575.5,286046998.5,N
1678587595.3,286047000.8,N
1678587615.1,286047000.8,N
1678587635.9,286046998.4,N
1678587655.7,286046998.8,N
1678587675.6,286046998.8,N
1678587695.4,286046998.3,N
1678587715.2,286046998.3,N
1678587735.1,286046999.5,N
1678587736.0,286046999.5,N
1678587755.8,286046996.5,Y
1678587775.7,286046999.5,P
1678587795.5,286046997.4,P
1678587815.3,286046999.1,N
1678587835.2,286046999.4,N
1678587855.0,286046998.1,N
1678587855.9,286046998.1,N
1678587875.8,286046998.7,N
1678587895.6,286046998.9,N
1678587915.4,286046999.0,N
1678587935.3,286046999.0,N
1678587955.1,286046999.3,N
1678587975.8,286046998.4,N
1678587995.7,286047001.2,N
1678588015.5,286046998.1,N
1678588035.4,286047001.2,N
1678588055.2,286046998.7,N
1678588075.0,286046998.4,N
1678588075.9,286046998.4,N
1678588095.8,286047001.0,N
1678588115.6,286046998.6,N
1678588135.4,286046998.1,N
1678588155.3,286046998.2,N
1678588175.1,286046998.5,N
1678588195.9,286047001.1,N
1678588215.7,286047001.0,N
1678588235.5,286047000.6,N
1678588255.4,286046998.1,N
1678588275.2,286046999.0,N
1678588295.0,286046998.2,N
1678588295.9,286046998.2,N
1678588315.8,286047000.9,N
1678588335.6,286047000.7,N
1678588355.5,286047000.2,N
1678588375.3,286047000.4,N
1678588395.1,286047000.2,N
1678588415.9,286047000.7,N
1678588435.7,286046998.8,N
1678588455.5,286047000.8,N
1678588475.4,286047000.7,N
1678588495.2,286047000.6,N
1678588515.0,286047001.1,N
1678588516.0,286047001.1,N
1678588535.8,286047000.4,N
1678588555.6,286047000.4,N
1678588575.5,286047000.1,N
1678588595.3,286047000.1,N
1678588615.1,286047001.8,N
1678588635.9,286047002.0,N
1678588655.7,286046999.9,N
1678588675.6,286046999.9,N
1678588695.4,286047000.1,N
1678588715.2,286047002.7,N
1678588735.1,286047002.2,N
1678588736.0,286047002.2,N
1678588755.8,286047002.4,N
1678588775.6,286047000.2,N
1678588795.5,286046999.8,N
1678588815.3,286047000.6,N
1678588835.2,286047002.7,N
1678588855.9,286047002.5,N
1678588875.7,286046999.7,N
1678588895.6,286047001.6,N
1678588915.4,286047004.4,Y
1678588935.2,286047001.5,P
1678588955.1,286047001.7,P
1678588956.0,286047001.7,P
1678588975.8,286047002.3,Y
1678588995.7,286047000.3,P
1678589015.5,286047000.9,N
1678589035.3,286047002.8,P
1678589055.2,286047004.4,Y
1678589075.0,286047000.0,P
1678589075.9,286047000.0,N
1678589095.8,286047000.1,N
1678589115.6,286047002.3,Y
1678589135.4,286047002.7,P
1678589155.3,286046999.7,N
1678589175.1,286047000.0,N
1678589195.8,286047000.3,N
1678589215.7,286047002.7,N
1678589235.5,286047000.4,N
1678589255.4,286047000.4,N
1678589275.2,286047000.4,N
1678589295.0,286046998.5,N
1678589295.9,286046998.5,N
1678589315.8,286046998.6,N
1678589335.6,286046998.4,N
1678589355.4,286047000.8,N
1678589375.3,286046998.2,N
1678589395.1,286047001.2,N
1678589415.9,286047000.9,N
1678589435.7,286047000.3,N
1678589455.5,286047002.8,N
1678589475.4,286047001.9,N
1678589495.2,286046999.7,N
1678589515.0,286047001.5,N
1678589515.9,286047001.5,N
1678589535.8,286047000.2,N
1678589555.6,286047000.6,N
1678589575.5,286047002.4,N
1678589595.3,286047000.2,N
1678589615.1,286046999.8,N
1678589635.9,286047000.3,N
1678589655.7,286047000.1,N
1678589675.5,286047002.5,N
1678589695.4,286047002.0,N
1678589715.2,286047002.7,N
1678589735.0,286047000.1,N
1678589736.0,286047000.1,N
1678589755.8,286047000.6,N
1678589775.6,286047002.7,N
1678589795.5,286047000.1,N
1678589815.3,286046999.7,N
1678589835.1,286047002.7,N
1678589855.9,286047001.5,N
1678589875.7,286047002.2,N
1678589895.6,286047000.0,N
1678589915.4,286047002.4,N
1678589935.2,286047002.8,N
1678589955.1,286047001.8,N
1678589956.0,286047001.8,N
1678589975.8,286047002.5,N
1678589995.6,286047002.4,N
